Torna al catalogo

STARLINK-4146

AttivoComunicazioniVLEO
NORAD 53294·PAYLOAD·🇺🇸 United States

Lanciato Jul 24, 2022 da Cape Canaveral Space Force Station

Loading…

Prossimi Passaggi (prossime 24 ore)

TLE

AggiornatoSource: CelesTrak SupGP

Epoca: Sep 15, 2026, 02:21 UTC

1 53294C 22086BE  26258.09840278 -.00012967  00000+0 -37104-3 0  2584
2 53294  53.1597  31.8767 0001230  85.9395 322.3907 15.35400337    10

Traccia STARLINK-4146 in tempo reale con AllMySat

Download on the App Store